This is the latest recevied weather packets stored in our database for station/object DM3FAM-10. If no packets are shown the sender has not sent any weather packets the latest 10 day(s).
| Time | Temp. | Humidity | Pressure | Rain* | Wind** | Luminosity | Snow |
|---|---|---|---|---|---|---|---|
| 1777976551 | 15° C | 100% | 960.6 hPa | - | - | - | - |
| 1777975651 | 14.44° C | 100% | 960.6 hPa | - | - | - | - |
| 1777974751 | 13.89° C | 100% | 960.6 hPa | - | - | - | - |
| 1777973851 | 14.44° C | 100% | 960.4 hPa | - | - | - | - |
| 1777972951 | 13.89° C | 100% | 960.7 hPa | - | - | - | - |
| 1777972051 | 13.89° C | 100% | 960.9 hPa | - | - | - | - |
| 1777971151 | 13.89° C | 100% | 960.9 hPa | - | - | - | - |
| 1777970251 | 14.44° C | 100% | 961 hPa | - | - | - | - |
| 1777969351 | 13.89° C | 100% | 961.1 hPa | - | - | - | - |
| 1777968451 | 13.89° C | 100% | 961.1 hPa | - | - | - | - |
| 1777967551 | 14.44° C | 100% | 961.2 hPa | - | - | - | - |
| 1777966651 | 13.89° C | 100% | 961.3 hPa | - | - | - | - |
| 1777965751 | 13.33° C | 100% | 961.4 hPa | - | - | - | - |
| 1777964850 | 12.78° C | 100% | 961.4 hPa | - | - | - | - |
| 1777963950 | 11.67° C | 100% | 961.7 hPa | - | - | - | - |
| 1777963050 | 11.67° C | 100% | 961.5 hPa | - | - | - | - |
| 1777962150 | 11.67° C | 100% | 961.6 hPa | - | - | - | - |
| 1777961250 | 11.11° C | 100% | 961.6 hPa | - | - | - | - |
| 1777960350 | 10.56° C | 100% | 961.7 hPa | - | - | - | - |
| 1777959450 | 10.56° C | 100% | 961.6 hPa | - | - | - | - |
| 1777958550 | 10.56° C | 100% | 961.5 hPa | - | - | - | - |
| 1777957650 | 10° C | 100% | 961.4 hPa | - | - | - | - |
| 1777956750 | 9.44° C | 100% | 961.4 hPa | - | - | - | - |
| 1777955850 | 9.44° C | 100% | 961.3 hPa | - | - | - | - |
| 1777954950 | 8.89° C | 100% | 961.5 hPa | - | - | - | - |
* Rain since midnight (hover to see other rain measurements)
** Current wind speed in m/s (hover to see current wind gust speed)